Location: M?digepalle
(16.1753°N, 80.3496°E)
Time: 08:10:30
(UTC+00:00)

Milstar 3 - Pass Details

Date: 29 October 2020
Orbit: 1101 x 5144 km, 28.2° (Epoch: 25 September)

Event Time Altitude Azimuth Distance (km) Brightness Sun altitude
Rises 13:53:03 0° 295° (WNW) 4,092 6.6 -25.2°
Reaches altitude 10° 13:56:09 10° 305° (NW) 2,991 5.6 -25.9°
Maximum altitude 14:02:11 34° 10° (N) 1,746 3.6 -27.4°
Enters shadow 14:02:38 34° 18° (NNE) 1,766 3.6 -27.5°
